Flag for Brazil Weather past 2 weeks in Niterói, Rio de Janeiro, Brazil

Now
66 °F

Partly cloudy.


Feels Like: 66 °F
Forecast: 64 / 69 °F
Wind: 5 mph from West

Location: Galeao

Current Time: Aug 28, 2014 at 5:05:34 AM

Latest Report: Aug 28, 2014 at 4:00 AM


Visibility: N/A

Pressure: 30.04 "Hg

Humidity: 88%

Dew point: 63 °F

Location of NiteróiLocation

Historic Weather in Niterói — Graph

°F

Niterói temperature yesterday

Maximum temperature yesterday: 75 °F (at 10:00 AM)
Minimum temperature yesterday: 66 °F (at 11:00 PM)
Average temperature yesterday: 71 °F

Past Weeks' High & Low Weather Summary

 TemperatureHumidityPressure
High93 °F (Aug 25, 2:00 PM)100% (Aug 22, 3:00 AM)30.42 "Hg (Aug 22, 3:00 AM)
Low59 °F (Aug 14, 5:00 AM)19% (Aug 25, 2:00 PM)29.83 "Hg (Aug 25, 3:00 PM)
Average71 °F76%30.11 "Hg
* Reported Aug 13 4:00 AM — Aug 28 4:00 AM, Niterói, Weather by CustomWeather, © 2014

Note: Actual official high and low records may vary slightly from our data, if they occured in-between our weather recording intervals... More about our weather records

Advertising

Niterói weather history for previous 24 hours

 ConditionsComfort  
Time TempWeatherWind HumidityBarometerVisibility
4:00 AM
Aug 28
66 °FPartly cloudy.5 mph88%30.04 "HgN/A
3:00 AM66 °FPartly cloudy.6 mph83%30.04 "HgN/A
2:00 AM66 °FPartly cloudy.6 mph83%30.07 "HgN/A
1:00 AM64 °FPartly cloudy.6 mph94%30.07 "HgN/A
12:00 AM66 °FPartly cloudy.3 mph88%30.09 "HgN/A
11:00 PM
Aug 27
66 °FPartly cloudy.6 mph83%30.09 "HgN/A
10:00 PM68 °FPassing clouds.3 mph73%30.07 "HgN/A
9:00 PM68 °FPartly cloudy.6 mph73%30.07 "HgN/A
8:00 PM70 °FPartly cloudy.8 mph69%30.07 "HgN/A
7:00 PM68 °FPartly cloudy.9 mph73%30.04 "HgN/A
6:00 PM70 °FPassing clouds.9 mph69%30.04 "HgN/A
5:00 PM70 °FPassing clouds.10 mph73%30.04 "HgN/A
4:00 PM72 °FBroken clouds.10 mph69%30.01 "HgN/A
3:00 PM72 °FPartly sunny.14 mph65%30.01 "HgN/A
2:00 PM70 °FPartly sunny.13 mph78%29.98 "HgN/A
1:00 PM72 °FPartly sunny.14 mph78%30.01 "Hg4 mi
12:00 PM73 °FBroken clouds.12 mph74%30.01 "Hg4 mi
11:00 AM75 °FSunny.9 mph74%30.04 "Hg10 mi
10:00 AM75 °FScattered clouds.6 mph74%30.04 "Hg2 mi
9:00 AM73 °FScattered clouds.3 mph78%30.04 "Hg2 mi
8:00 AM72 °FFog.5 mph83%30.01 "Hg2 mi
7:00 AM72 °FScattered clouds.2 mph83%29.98 "Hg4 mi
6:00 AM70 °FScattered clouds.3 mph88%29.98 "HgN/A
5:00 AM70 °FPassing clouds.3 mph88%29.95 "HgN/A
Weather by CustomWeather, © 2014

See weather overviewHow to use our weather pages